Cape Neddick Weather Center

Moon Phase Calendar



Online Cameras

 


      

Current Conditions in Cape Neddick
5/28/2022 7:32:09 PM

66°F
Feels Like 67
Clouds
Humidity
95%
Pressure
29.71"
Wind
6 mph (N)
Dew Point
65°F
UV Index
0/10 (Low)
Visibility
6 mi

Hourly Forecast

Date & Time Sat, May 28
7:00 PM
Sat, May 28
8:00 PM
Sat, May 28
9:00 PM
Sat, May 28
10:00 PM
Sat, May 28
11:00 PM
Sun, May 29
12:00 AM
Sun, May 29
1:00 AM
Sun, May 29
2:00 AM
Sun, May 29
3:00 AM
Sun, May 29
4:00 AM
Sun, May 29
5:00 AM
Sun, May 29
6:00 AM
Sun, May 29
7:00 AM
Sun, May 29
8:00 AM
Sun, May 29
9:00 AM
Sun, May 29
10:00 AM
Sun, May 29
11:00 AM
Sun, May 29
12:00 PM
Sun, May 29
1:00 PM
Sun, May 29
2:00 PM
Sun, May 29
3:00 PM
Sun, May 29
4:00 PM
Sun, May 29
5:00 PM
Sun, May 29
6:00 PM
Sun, May 29
7:00 PM
Sun, May 29
8:00 PM
Sun, May 29
9:00 PM
Sun, May 29
10:00 PM
Sun, May 29
11:00 PM
Mon, May 30
12:00 AM
Mon, May 30
1:00 AM
Mon, May 30
2:00 AM
Mon, May 30
3:00 AM
Mon, May 30
4:00 AM
Mon, May 30
5:00 AM
Mon, May 30
6:00 AM
Mon, May 30
7:00 AM
Mon, May 30
8:00 AM
Mon, May 30
9:00 AM
Mon, May 30
10:00 AM
Mon, May 30
11:00 AM
Mon, May 30
12:00 PM
Mon, May 30
1:00 PM
Mon, May 30
2:00 PM
Mon, May 30
3:00 PM
Mon, May 30
4:00 PM
Mon, May 30
5:00 PM
Mon, May 30
6:00 PM
Condition
Rain

Clouds

Clouds

Clouds

Clouds

Clouds

Clouds

Clouds

Clouds

Clouds

Clouds

Clouds

Clouds

Clouds

Clouds

Clouds

Clouds

Clouds

Clouds

Clouds

Clouds

Clouds

Clouds

Clouds

Clouds

Clouds

Clouds

Clouds

Clouds

Clouds

Clouds

Clouds

Clouds

Clouds

Clouds

Clouds

Clouds

Clouds

Clouds

Clouds

Clouds

Clouds

Clouds

Clouds

Clouds

Clouds

Clouds

Clouds
Temperature 65°F66°F65°F64°F62°F60°F57°F55°F55°F54°F54°F55°F57°F60°F63°F65°F66°F67°F67°F66°F65°F64°F63°F62°F61°F60°F60°F61°F61°F60°F60°F59°F58°F58°F58°F58°F61°F65°F68°F71°F73°F75°F76°F77°F77°F77°F76°F75°F
Feels Like 66°F67°F66°F65°F62°F60°F56°F55°F54°F54°F53°F54°F57°F60°F62°F64°F65°F66°F66°F65°F64°F63°F62°F61°F60°F59°F59°F60°F60°F59°F60°F58°F58°F57°F57°F58°F60°F64°F67°F70°F72°F74°F76°F77°F77°F76°F76°F75°F
Cloudiness 100%100%100%100%93%89%81%70%12%32%22%38%45%41%37%34%27%21%19%20%33%33%32%47%51%57%75%83%78%71%77%81%100%100%93%95%96%93%91%53%39%40%52%47%74%82%88%91%
Visibility 6 mi6 mi6 mi6 mi6 mi6 mi6 mi6 mi6 mi6 mi6 mi6 mi6 mi6 mi6 mi6 mi6 mi6 mi6 mi6 mi6 mi6 mi6 mi6 mi6 mi6 mi6 mi6 mi6 mi6 mi6 mi6 mi6 mi6 mi6 mi6 mi6 mi6 mi6 mi6 mi6 mi6 mi6 mi6 mi6 mi6 mi6 mi6 mi
Precipitation 100%80%54%62%52%44%40%33%0%0%0%0%0%0%0%0%0%0%0%0%0%0%0%0%0%0%0%0%0%0%0%0%0%0%0%0%0%0%0%0%0%0%0%0%0%0%0%0%
Humidity 96%95%96%94%92%90%89%90%91%91%91%90%87%79%70%64%61%58%57%57%58%59%61%63%66%65%64%68%75%81%78%81%81%81%82%81%78%70%63%55%48%46%45%46%49%52%57%61%
Dew Point 64°F65°F64°F62°F60°F57°F53°F52°F52°F52°F51°F52°F53°F53°F52°F51°F51°F50°F50°F49°F49°F49°F49°F49°F49°F48°F48°F50°F53°F54°F53°F53°F52°F52°F52°F52°F54°F54°F54°F53°F51°F52°F52°F54°F55°F56°F59°F60°F
Pressure 29.71"29.71"29.71"29.74"29.77"29.8"29.85"29.88"29.88"29.91"29.91"29.94"29.97"30"30"30"30"30"30"30"29.97"29.97"29.97"29.97"29.97"30"30"30"30"30"30"30"30"30"30"30"30.03"30.03"30"30"29.97"29.97"29.94"29.91"29.91"29.88"29.91"29.88"
Wind Speed 8.3 mph4.9 mph5.1 mph8.1 mph9.4 mph6.9 mph6.3 mph6.2 mph6.3 mph5.8 mph5.4 mph5.3 mph4 mph2.9 mph3.4 mph5.5 mph7.2 mph9 mph11.8 mph13.6 mph14.7 mph15.1 mph14.9 mph14.1 mph12.9 mph12.7 mph11.5 mph11.4 mph11 mph10.1 mph9.4 mph8.4 mph8.8 mph9.5 mph9.2 mph8.3 mph7.5 mph7.3 mph7.4 mph8 mph8.1 mph8.8 mph8 mph7.4 mph6.8 mph5 mph4.6 mph6.1 mph
Wind
Direction
253°
WSW
255°
WSW
333°
NNW

N

N
346°
NNW
328°
NNW
330°
NNW
323°
NW
322°
NW
324°
NW
316°
NW
310°
NW
286°
WNW
222°
SW
197°
SSW
181°
S
174°
S
170°
S
172°
S
173°
S
175°
S
177°
S
183°
S
192°
SSW
200°
SSW
205°
SSW
214°
SW
227°
SW
239°
WSW
248°
WSW
245°
WSW
245°
WSW
241°
WSW
247°
WSW
254°
WSW
259°
W
261°
W
255°
WSW
258°
WSW
261°
W
267°
W
267°
W
259°
W
248°
WSW
258°
WSW
244°
WSW
252°
WSW

Daily Forecast

Date High Low Precip. Humidity
Today
May 28

Rain
66 °F
60 °F
100%
94%
Sunday
May 29

Clouds
67 °F
54 °F
44%
58%
Monday
May 30

Clouds
77 °F
58 °F
0%
48%
Tuesday
May 31

Rain
57 °F
51 °F
71%
93%
Wednesday
Jun 1

Rain
55 °F
52 °F
99%
77%
Thursday
Jun 2

Rain
63 °F
55 °F
61%
78%
Friday
Jun 3

Clear
68 °F
54 °F
0%
51%
Saturday
Jun 4

Clear
74 °F
55 °F
8%
49%
Sunday
Jun 5

Rain
73 °F
59 °F
100%
59%
Monday
Jun 6

Rain
73 °F
55 °F
100%
64%
Tuesday
Jun 7

Rain
56 °F
51 °F
29%
74%
Wednesday
Jun 8

Clouds
60 °F
49 °F
0%
62%
Thursday
Jun 9

Clouds
57 °F
50 °F
0%
68%
Friday
Jun 10

Clouds
64 °F
53 °F
2%
86%
Saturday
Jun 11

Rain
65 °F
59 °F
100%
96%
Sunday
Jun 12

Clear
72 °F
57 °F
52%
54%

Temperature 8-14 Day Outlook



Precipitation 8-14 Day Outlook




Quick Links
Cape Neddick News
Cape Neddick Photos
Cape Neddick Videos




About Us
Contact Us
Site Map
Search Site
Advertise With Us
   
CapeNeddick.USCoast.info
THE CAPE NEDDICK WEBSITE

Copyright 2022, Coastal Town
Privacy    |    Legal